When you browse on this site, cookies collect data to enhance your experience and personalize the content and advertising you see.
Visit our Privacy Policy to learn more. By continuing to use the site, you agree to this use of cookies and data.
  • In Latvia
  • List of Countries
  • For 7 days
  • Water Temperature
  • Satellite Maps
  • Weather Map
  • Weather Widgets
  • user-avatar
    Login

    Hourly Weather Ganja

    Today, 27 May, Monday

    Time Temperature Precipitation Wind Pressure Humidity
    00:00 +19°C° 0 mm 4 mps 726 mmHg 60%
    01:00 +19°C° 0 mm 4 mps 726 mmHg 60%
    02:00 +18°C° 0 mm 4 mps 726 mmHg 60%
    03:00 +17°C° 0 mm 5 mps 725 mmHg 62%
    04:00 +17°C° 0 mm 5 mps 725 mmHg 61%
    05:00 +19°C° 0 mm 4 mps 726 mmHg 61%
    06:00 +19°C° 0 mm 4 mps 726 mmHg 60%
    07:00 +20°C° 0 mm 4 mps 726 mmHg 56%
    08:00 +21°C° 0 mm 5 mps 726 mmHg 52%
    09:00 +23°C° 0 mm 5 mps 726 mmHg 49%
    10:00 +23°C° 0 mm 5 mps 726 mmHg 46%
    11:00 +25°C° 0 mm 4 mps 726 mmHg 43%
    12:00 +26°C° 0 mm 4 mps 726 mmHg 40%
    13:00 +27°C° 0 mm 3 mps 726 mmHg 40%
    14:00 +27°C° 0 mm 2 mps 726 mmHg 39%
    15:00 +28°C° 0 mm 2 mps 726 mmHg 38%
    16:00 +27°C° 0 mm 1 mps 726 mmHg 40%
    17:00 +27°C° 0 mm 1 mps 726 mmHg 41%
    18:00 +27°C° 0 mm 1 mps 726 mmHg 43%
    19:00 +26°C° 0 mm 1 mps 727 mmHg 47%
    20:00 +24°C° 0 mm 2 mps 727 mmHg 50%
    21:00 +23°C° 0 mm 2 mps 728 mmHg 53%
    22:00 +21°C° 0 mm 2 mps 728 mmHg 59%
    23:00 +20°C° 0 mm 2 mps 728 mmHg 65%

    Tomorrow, 28 May, Tuesday

    Time Temperature Precipitation Wind Pressure Humidity
    00:00 +19°C° 0 mm 2 mps 729 mmHg 70%
    01:00 +19°C° 0 mm 2 mps 728 mmHg 73%
    02:00 +19°C° 0 mm 1 mps 728 mmHg 77%
    03:00 +18°C° 0 mm 1 mps 728 mmHg 80%
    04:00 +19°C° 0 mm 1 mps 728 mmHg 78%
    05:00 +19°C° 0 mm 1 mps 728 mmHg 77%
    06:00 +20°C° 0 mm 1 mps 728 mmHg 75%
    07:00 +20°C° 0 mm 1 mps 728 mmHg 72%
    08:00 +20°C° 0 mm 2 mps 728 mmHg 69%
    09:00 +21°C° 0 mm 2 mps 728 mmHg 66%
    10:00 +23°C° 0 mm 2 mps 728 mmHg 64%
    11:00 +24°C° 0 mm 3 mps 728 mmHg 61%
    12:00 +25°C° 0 mm 3 mps 728 mmHg 58%
    13:00 +25°C° 0.6 mm 3 mps 727 mmHg 56%
    14:00 +26°C° 0.6 mm 3 mps 727 mmHg 55%
    15:00 +26°C° 0.6 mm 4 mps 727 mmHg 53%
    16:00 +26°C° 0.4 mm 3 mps 727 mmHg 55%
    17:00 +26°C° 0.4 mm 3 mps 727 mmHg 56%
    18:00 +25°C° 0.4 mm 3 mps 727 mmHg 58%
    19:00 +24°C° 0.3 mm 3 mps 728 mmHg 61%
    20:00 +22°C° 0.3 mm 3 mps 728 mmHg 64%
    21:00 +21°C° 0.3 mm 2 mps 729 mmHg 67%
    22:00 +20°C° 0.3 mm 2 mps 729 mmHg 69%
    23:00 +20°C° 0.3 mm 2 mps 729 mmHg 70%

    Day after tomorrow, 29 May, Wednesday

    Time Temperature Precipitation Wind Pressure Humidity
    00:00 +19°C° 0.3 mm 2 mps 729 mmHg 72%
    01:00 +20°C° 0.1 mm 1 mps 729 mmHg 74%
    02:00 +19°C° 0.1 mm 1 mps 729 mmHg 76%
    03:00 +19°C° 0.1 mm 1 mps 729 mmHg 78%
    04:00 +19°C° 0 mm 1 mps 729 mmHg 76%
    05:00 +19°C° 0 mm 1 mps 729 mmHg 75%
    06:00 +20°C° 0 mm 1 mps 728 mmHg 73%
    07:00 +21°C° 0 mm 1 mps 728 mmHg 68%
    08:00 +22°C° 0 mm 1 mps 728 mmHg 64%
    09:00 +23°C° 0 mm 1 mps 728 mmHg 59%
    10:00 +24°C° 0 mm 2 mps 728 mmHg 56%
    11:00 +25°C° 0 mm 2 mps 728 mmHg 53%
    12:00 +26°C° 0 mm 2 mps 728 mmHg 49%
    13:00 +27°C° 0 mm 2 mps 727 mmHg 48%
    14:00 +27°C° 0 mm 3 mps 727 mmHg 46%
    15:00 +28°C° 0 mm 3 mps 727 mmHg 44%
    16:00 +28°C° 0 mm 3 mps 727 mmHg 45%
    17:00 +27°C° 0 mm 3 mps 727 mmHg 47%
    18:00 +27°C° 0 mm 3 mps 727 mmHg 48%
    19:00 +26°C° 0 mm 2 mps 727 mmHg 52%
    20:00 +24°C° 0 mm 2 mps 727 mmHg 55%
    21:00 +23°C° 0 mm 2 mps 728 mmHg 58%
    22:00 +21°C° 0 mm 2 mps 728 mmHg 60%
    23:00 +21°C° 0 mm 2 mps 728 mmHg 61%

    30 May, Thursday

    Time Temperature Precipitation Wind Pressure Humidity
    00:00 +21°C° 0 mm 1 mps 728 mmHg 63%
    01:00 +21°C° 0 mm 1 mps 728 mmHg 65%
    02:00 +20°C° 0 mm 1 mps 728 mmHg 67%
    03:00 +20°C° 0 mm 1 mps 727 mmHg 69%
    04:00 +20°C° 0 mm 1 mps 728 mmHg 67%
    05:00 +21°C° 0 mm 1 mps 728 mmHg 65%
    06:00 +21°C° 0 mm 1 mps 728 mmHg 64%
    07:00 +22°C° 0 mm 1 mps 728 mmHg 60%
    08:00 +24°C° 0 mm 2 mps 727 mmHg 57%
    09:00 +25°C° 0 mm 2 mps 727 mmHg 54%
    10:00 +26°C° 0 mm 2 mps 727 mmHg 51%
    11:00 +27°C° 0 mm 2 mps 726 mmHg 47%
    12:00 +28°C° 0 mm 2 mps 726 mmHg 44%
    13:00 +28°C° 0 mm 2 mps 726 mmHg 42%
    14:00 +29°C° 0 mm 2 mps 726 mmHg 41%
    15:00 +29°C° 0 mm 3 mps 725 mmHg 39%
    16:00 +29°C° 0 mm 3 mps 725 mmHg 41%
    17:00 +29°C° 0 mm 3 mps 725 mmHg 42%
    18:00 +28°C° 0 mm 3 mps 725 mmHg 44%
    19:00 +26°C° 0 mm 3 mps 726 mmHg 49%
    20:00 +25°C° 0 mm 4 mps 726 mmHg 54%
    21:00 +22°C° 0 mm 5 mps 727 mmHg 60%
    22:00 +21°C° 0.1 mm 4 mps 727 mmHg 61%
    23:00 +21°C° 0.1 mm 3 mps 727 mmHg 61%

    31 May, Friday

    Time Temperature Precipitation Wind Pressure Humidity
    00:00 +21°C° 0.1 mm 2 mps 727 mmHg 62%
    01:00 +20°C° 0 mm 2 mps 727 mmHg 64%
    02:00 +20°C° 0 mm 1 mps 727 mmHg 65%
    03:00 +20°C° 0 mm 1 mps 726 mmHg 67%
    04:00 +21°C° 0 mm 1 mps 727 mmHg 66%
    05:00 +21°C° 0 mm 1 mps 727 mmHg 64%
    06:00 +22°C° 0 mm 1 mps 727 mmHg 63%
    07:00 +23°C° 0 mm 1 mps 727 mmHg 59%
    08:00 +24°C° 0 mm 1 mps 726 mmHg 55%
    09:00 +25°C° 0 mm 1 mps 726 mmHg 52%
    10:00 +26°C° 0 mm 2 mps 726 mmHg 49%
    11:00 +27°C° 0 mm 2 mps 726 mmHg 46%
    12:00 +28°C° 0 mm 3 mps 725 mmHg 43%
    13:00 +29°C° 0 mm 3 mps 725 mmHg 42%
    14:00 +29°C° 0 mm 3 mps 725 mmHg 40%
    15:00 +30°C° 0 mm 3 mps 724 mmHg 39%
    16:00 +29°C° 0 mm 3 mps 724 mmHg 41%
    17:00 +29°C° 0 mm 3 mps 724 mmHg 42%
    18:00 +28°C° 0 mm 3 mps 724 mmHg 44%
    19:00 +27°C° 0 mm 3 mps 725 mmHg 48%
    20:00 +26°C° 0 mm 3 mps 725 mmHg 51%
    21:00 +24°C° 0 mm 2 mps 726 mmHg 54%
    22:00 +24°C° 0 mm 3 mps 726 mmHg 55%
    23:00 +22°C° 0 mm 3 mps 726 mmHg 56%

    1 June, Saturday

    Time Temperature Precipitation Wind Pressure Humidity
    00:00 +22°C° 0 mm 3 mps 726 mmHg 57%
    01:00 +21°C° 0 mm 2 mps 725 mmHg 59%
    02:00 +21°C° 0 mm 2 mps 725 mmHg 60%
    03:00 +21°C° 0 mm 1 mps 725 mmHg 62%
    04:00 +22°C° 0 mm 1 mps 725 mmHg 62%
    05:00 +22°C° 0 mm 1 mps 725 mmHg 62%
    06:00 +22°C° 0 mm 1 mps 725 mmHg 62%
    07:00 +23°C° 0 mm 1 mps 725 mmHg 58%
    08:00 +24°C° 0 mm 1 mps 725 mmHg 55%
    09:00 +25°C° 0 mm 2 mps 725 mmHg 51%
    10:00 +27°C° 0 mm 3 mps 725 mmHg 48%
    11:00 +28°C° 0 mm 3 mps 725 mmHg 45%
    12:00 +29°C° 0 mm 4 mps 724 mmHg 43%
    13:00 +29°C° 0 mm 4 mps 724 mmHg 42%
    14:00 +30°C° 0 mm 4 mps 724 mmHg 41%
    15:00 +30°C° 0 mm 4 mps 724 mmHg 40%
    16:00 +30°C° 0 mm 4 mps 724 mmHg 43%
    17:00 +29°C° 0 mm 4 mps 724 mmHg 45%
    18:00 +28°C° 0 mm 3 mps 724 mmHg 48%
    19:00 +27°C° 0.1 mm 3 mps 724 mmHg 52%
    20:00 +26°C° 0.1 mm 2 mps 725 mmHg 56%
    21:00 +25°C° 0.1 mm 2 mps 725 mmHg 61%
    22:00 +24°C° 0.1 mm 2 mps 725 mmHg 62%
    23:00 +24°C° 0.1 mm 1 mps 725 mmHg 64%
    Show more